STARLINK-1653 (46352 NORAD) Tracking and Keplerian Element Data

This shows tracking and keplerian element data for the satellite.

Feedback or suggestion? Click here.




ElementValue
Catalog46352
NameSTARLINK-1653
Epoch Orbit181
Epoch Day330.91667824
Epoch Year2020
RAAN21.6021
Inclination53.0004
Eccentricity0.0001216
Argument of Perigee73.6458
Mean Anonmoly352.4485
Mean Motion15.42802862
Decay Rate-0.010879
L11 46352U 20062AD 20330.91667824 -.01087900 00000-0 -26650-1 0 9998
L22 46352 53.0004 21.6021 0001216 73.6458 352.4485 15.42802862 1818

Live tracking and technical data element details for STARLINK-1653 (NORAD 46352). STARLINK-1653 can be tracked NOW for your location showing map with azimuth and elevation plus other details from your city location.

Track the satellite on the map from your city or location and see movement details for azimuth, elevation, latitude, longitude, range, height, and movement on the map or in text.







IsCatalogInMostPopularTable: catalog: 46352, numindb: 23
Update: records affected: 1



GetName: 46352 STARLINK-1653

Hit Count: updated at: Thu, 26 Nov 2020 23:36:25 GMT